Lid_Strength_Index
-1 -0 3 4 10 11 15 12 10 9 10 10 10 10 11 10 9 12 6 1 2 1 -0 -0 -1 -1 -2 -2 -2 -2 -2 -2 -2 -2 -2 -2 -2 -1 -1 -1 -1 -1 -1 -1 -2 -1 -1 -1 -1
0 1 5 7 13 16 14 10 10 8 8 11 11 11 11 11 7 5 4 1 3 1 -0 -0 -1 -1 -2 -2 -2 -2 -2 -2 -2 -2 -2 -2 -2 -2 -2 -2 -1 -1 -2 -1 -1 -1 -1 -1 -2
1 3 7 10 13 16 14 10 9 7 6 9 11 9 9 9 6 5 2 1 2 1 0 -0 -1 -1 -1 -2 -2 -2 -2 -2 -2 -2 -2 -2 -1 -1 -2 -2 -2 -2 -2 -2 -2 -2 -2 -1 -1
4 4 5 12 14 11 11 9 8 8 7 9 9 9 8 6 5 4 2 1 1 0 -0 -1 -1 -1 -1 -1 -1 -1 -1 -2 -2 -1 -2 -1 -1 -2 -2 -2 -2 -2 -2 -2 -2 -2 -2 -2 -1
3 7 11 13 13 10 8 7 8 8 8 10 9 9 9 7 4 4 1 1 2 1 0 -0 -1 -1 -1 -1 -1 -1 -1 -1 -1 -1 -1 -1 -1 -1 -2 -1 -2 -2 -2 -2 -2 -2 -2 -2 -2
7 8 13 14 12 9 8 7 8 8 8 9 9 9 8 6 5 3 1 1 2 2 0 0 -1 -1 -1 -1 -1 -1 -1 -1 -1 -1 -1 -2 -2 -1 -1 -2 -1 -2 -2 -2 -2 -2 -2 -2 -2
8 10 13 12 11 10 8 7 9 9 9 8 8 9 8 7 5 2 1 1 1 0 0 0 0 -0 -1 -1 -1 -1 -1 -1 -1 -1 -1 -1 -1 -1 -1 -2 -2 -2 -2 -2 -2 -2 -2 -2 -2
7 8 13 11 11 11 7 8 8 8 8 6 6 9 9 7 5 4 3 3 1 1 0 0 0 0 0 0 -1 -1 -1 -1 -1 -1 -1 -1 -1 -1 -1 -2 -1 -1 -2 -2 -2 -2 -2 -2 -2
6 11 13 11 11 9 8 9 7 6 7 8 7 7 6 6 6 4 5 4 3 2 1 0 0 0 0 1 0 -1 -1 -1 -1 -1 -1 -1 0 -0 -1 -1 -1 -1 -2 -1 -2 -2 -2 -2 -2
8 12 11 8 8 8 8 8 7 7 7 7 7 6 5 6 6 5 5 4 5 3 4 3 2 2 1 0 1 1 1 1 1 1 0 0 0 0 -0 -1 -1 -1 -1 -2 -1 -1 -1 -1 -1
8 10 8 7 6 7 7 7 6 7 8 6 7 5 6 6 6 6 4 4 3 3 3 4 3 3 2 2 2 1 1 1 1 1 1 1 1 2 1 0 0 0 -1 -0 -1 -1 -1 -0 -0
10 7 6 6 6 7 7 6 7 6 6 5 5 5 6 7 6 6 5 5 6 5 4 4 4 3 3 2 1 1 2 2 2 1 1 2 2 2 2 1 1 1 1 1 0 -0 -0 -0 0
9 7 7 6 6 6 5 7 7 6 4 4 5 6 6 7 6 5 5 5 6 6 5 4 3 3 2 2 2 2 2 2 2 2 1 2 2 2 2 2 1 1 1 2 1 0 -0 0 0
9 8 8 8 7 6 7 7 7 6 4 6 6 7 7 7 6 6 6 6 7 6 5 4 3 3 2 2 2 2 2 2 2 2 2 2 2 2 2 2 2 2 2 1 1 0 0 0 1
11 13 11 10 9 9 7 11 9 7 6 7 7 7 7 6 6 6 6 5 6 5 4 3 3 2 2 2 2 2 2 2 2 2 2 2 2 2 2 2 2 2 1 1 1 0 0 1 1
12 13 15 11 9 9 9 13 9 7 8 8 8 7 7 7 6 6 5 6 6 4 3 3 1 2 2 3 2 2 2 2 2 2 2 1 1 1 2 2 2 2 2 1 1 1 1 1 1
14 15 15 14 10 10 10 12 9 8 8 8 8 7 7 7 7 5 6 6 4 3 3 3 2 2 3 3 3 2 2 2 2 2 2 1 1 1 2 2 1 1 2 2 2 1 1 2 1
16 16 15 14 11 12 12 11 10 9 9 9 8 8 8 7 7 7 6 5 4 3 3 3 3 3 3 3 3 2 3 2 2 2 1 1 1 0 2 1 1 1 2 2 2 1 1 1 1
13 14 14 12 10 11 12 11 10 9 9 9 9 8 8 8 7 7 6 4 4 3 3 3 3 3 3 3 3 3 3 3 2 2 1 1 1 1 1 2 1 1 2 2 2 1 1 2 1
12 14 14 11 10 11 11 12 10 10 9 9 9 8 8 8 7 6 6 5 4 3 3 3 3 3 3 3 3 3 3 2 2 2 2 1 1 1 2 2 1 1 2 2 2 1 2 2 1
13 13 13 13 11 11 12 13 12 10 9 9 8 8 8 8 7 7 6 5 4 4 4 3 3 3 3 3 3 3 3 3 3 2 2 1 1 1 1 1 1 2 2 2 1 1 2 3 2
15 11 11 11 13 16 11 17 13 11 10 9 9 9 9 7 6 6 5 5 4 4 3 3 3 3 3 3 3 3 3 3 3 2 2 2 1 1 1 1 1 2 2 2 1 1 1 1 3
13 10 11 12 14 14 13 15 14 12 11 10 9 8 9 7 6 6 5 4 4 3 3 3 3 3 3 3 3 3 3 3 2 3 2 2 2 1 1 1 2 2 2 1 1 1 1 1 2
10 12 13 14 14 18 14 14 15 13 11 10 9 8 7 7 7 6 5 4 4 4 4 3 3 4 3 3 3 3 3 3 3 3 3 3 2 1 1 1 1 1 1 1 1 1 1 1 1
13 16 20 20 20 19 13 14 14 11 10 9 9 9 7 7 7 6 5 5 5 4 4 3 3 4 3 3 3 3 3 3 3 3 3 3 2 2 2 2 1 1 1 1 1 1 1 1 1
14 15 19 21 20 17 13 16 13 9 8 8 8 8 7 7 7 6 6 5 5 4 4 3 4 4 4 3 3 3 3 3 3 2 2 3 2 2 2 1 1 1 1 1 1 1 1 1 1
15 15 13 16 15 17 15 13 10 9 9 9 9 8 8 8 7 6 6 5 5 4 4 4 4 4 4 3 3 3 2 2 2 2 2 2 2 1 1 1 1 1 1 1 2 2 1 1 1
13 11 16 17 19 20 16 15 14 11 10 9 9 9 8 7 7 6 6 5 5 4 4 4 4 4 3 3 3 3 2 2 1 1 2 2 2 2 1 1 1 1 1 1 1 1 1 1 1
15 15 16 15 16 18 19 16 11 10 10 9 9 9 8 7 7 6 6 5 5 4 4 4 4 4 3 3 3 2 2 2 2 2 2 2 2 2 2 2 1 2 2 1 1 1 1 1 1
11 13 14 16 18 16 16 16 10 10 10 9 9 8 8 7 6 6 6 6 5 4 4 4 4 4 3 3 3 2 2 2 2 2 2 2 2 1 1 1 1 2 2 1 1 1 1 1 2